This is the latest recevied weather packets stored in our database for station/object XE1MMG-6. If no packets are shown the sender has not sent any weather packets the latest 10 day(s).
| Time | Temp. | Humidity | Pressure | Rain* | Wind** | Luminosity | Snow |
|---|---|---|---|---|---|---|---|
| 1788142790 | 82° F | 37% | 610.6 mmHg | - | - | - | - |
| 1788142176 | 82° F | 36% | 610.3 mmHg | - | - | - | - |
| 1788141562 | 81° F | 36% | 610.2 mmHg | - | - | - | - |
| 1788140947 | 83° F | 35% | 610 mmHg | - | - | - | - |
| 1788140333 | 83° F | 35% | 610 mmHg | - | - | - | - |
| 1788139719 | 83° F | 34% | 609.8 mmHg | - | - | - | - |
| 1788139105 | 86° F | 31% | 609.8 mmHg | - | - | - | - |
| 1788138491 | 87° F | 30% | 609.6 mmHg | - | - | - | - |
| 1788137877 | 87° F | 30% | 609.4 mmHg | - | - | - | - |
| 1788137262 | 88° F | 28% | 609.3 mmHg | - | - | - | - |
| 1788136648 | 89° F | 26% | 609.1 mmHg | - | - | - | - |
| 1788136034 | 90° F | 27% | 609.1 mmHg | - | - | - | - |
| 1788135420 | 90° F | 26% | 608.9 mmHg | - | - | - | - |
| 1788134806 | 90° F | 25% | 608.7 mmHg | - | - | - | - |
| 1788134191 | 91° F | 26% | 608.5 mmHg | - | - | - | - |
| 1788133577 | 90° F | 26% | 608.3 mmHg | - | - | - | - |
| 1788132963 | 89° F | 26% | 608.3 mmHg | - | - | - | - |
| 1788132349 | 89° F | 27% | 608.4 mmHg | - | - | - | - |
| 1788131734 | 89° F | 27% | 608.2 mmHg | - | - | - | - |
| 1788131120 | 87° F | 28% | 608.5 mmHg | - | - | - | - |
| 1788130506 | 89° F | 26% | 608.3 mmHg | - | - | - | - |
| 1788129892 | 90° F | 24% | 608.3 mmHg | - | - | - | - |
| 1788129278 | 90° F | 24% | 608.1 mmHg | - | - | - | - |
| 1788128663 | 90° F | 24% | 608.4 mmHg | - | - | - | - |
| 1788128049 | 91° F | 24% | 608.4 mmHg | - | - | - | - |
* Rain since midnight (hover to see other rain measurements)
** Current wind speed in m/s (hover to see current wind gust speed)